DW2147 Weather Reports


time (UTC)temp
C
wind
direction
speed
KPH
gust
KPH
rain 1hr
cm
rain 24hr
cm
rain mn
cm
humidity
%
barometer
mb
20260505051114 17 0 6.4 19.3 0.00 0.00 0.00 56 1008.8
20260505050612 17 0 6.4 19.3 0.00 0.00 0.00 56 1008.7
20260505050110 17 0 6.4 16.1 0.00 0.00 0.00 56 1008.8
20260505041608 17 0 3.2 12.9 0.00 0.00 0.00 57 1008.6
20260505041103 17 0 3.2 8.0 0.00 0.00 0.00 57 1008.6
20260505040602 17 0 3.2 8.0 0.00 0.00 0.00 57 1008.6
20260505040334 17 0 3.2 8.0 0.00 0.00 0.00 57 1008.7
20260505035832 17 0 3.2 6.4 0.00 0.00 0.00 57 1008.7
20260505035102 17 0 1.6 4.8 0.00 0.00 0.00 57 1008.7
20260505034556 17 0 0.0 4.8 0.00 0.00 0.00 57 1008.7
20260505034058 17 0 1.6 4.8 0.00 0.00 0.00 57 1008.7
20260505034054 17 0 0.0 3.2 0.00 0.00 0.00 57 1008.7
20260505033320 17 0 1.6 4.8 0.00 0.00 0.00 57 1008.8
20260505032549 17 0 1.6 4.8 0.00 0.00 0.00 57 1008.7
20260505032045 17 0 1.6 4.8 0.00 0.00 0.00 57 1008.7
20260505031545 17 0 1.6 4.8 0.00 0.00 0.00 57 1008.8
20260505031042 17 0 3.2 4.8 0.00 0.00 0.00 57 1008.9
20260505030544 17 0 1.6 6.4 0.00 0.00 0.00 57 1009.0
20260505030044 17 0 1.6 6.4 0.00 0.00 0.00 57 1009.1
20260505025813 17 0 1.6 4.8 0.00 0.00 0.00 57 1008.9
20260505025038 17 0 3.2 8.0 0.00 0.00 0.00 57 1009.0
20260505024808 17 0 3.2 8.0 0.00 0.00 0.00 57 1009.1
20260505024037 17 0 3.2 6.4 0.00 0.00 0.00 57 1009.1
20260505023536 17 0 3.2 8.0 0.00 0.00 0.00 56 1009.1
20260505023307 17 0 3.2 8.0 0.00 0.00 0.00 56 1009.4
20260505022536 17 0 4.8 9.7 0.00 0.00 0.00 56 1009.4
20260505022033 18 0 4.8 9.7 0.00 0.00 0.00 56 1009.7
20260505021533 18 0 4.8 9.7 0.00 0.00 0.00 56 1009.6
20260505021034 18 0 4.8 8.0 0.00 0.00 0.00 55 1009.8
20260505020533 18 0 4.8 8.0 0.00 0.00 0.00 55 1009.8
20260505020300 18 0 6.4 16.1 0.00 0.00 0.00 55 1009.8
20260505015530 18 0 8.0 16.1 0.00 0.00 0.00 54 1009.9
20260505015030 18 0 6.4 14.5 0.00 0.00 0.00 54 1009.8
20260505014534 18 0 8.0 16.1 0.00 0.00 0.00 54 1009.9
20260505014530 18 0 6.4 16.1 0.00 0.00 0.00 54 1009.9
20260505013527 18 0 6.4 14.5 0.00 0.00 0.00 54 1009.8
20260505013027 18 0 6.4 9.7 0.00 0.00 0.00 53 1009.9
20260505012526 19 0 6.4 14.5 0.00 0.00 0.00 53 1009.9
20260505012026 19 0 6.4 14.5 0.00 0.00 0.00 53 1009.7
20260505011526 19 0 6.4 12.9 0.00 0.00 0.00 53 1009.8
20260505011027 19 0 6.4 16.1 0.00 0.00 0.00 52 1009.8
20260505010527 19 0 8.0 17.7 0.00 0.00 0.00 53 1009.6
20260505010024 19 0 8.0 17.7 0.00 0.00 0.00 53 1009.5
20260505005524 19 0 8.0 16.1 0.00 0.00 0.00 52 1009.4
20260505005023 19 0 8.0 16.1 0.00 0.00 0.00 52 1009.4
20260505004524 20 0 8.0 17.7 0.00 0.00 0.00 51 1009.3
20260505004023 20 0 8.0 17.7 0.00 0.00 0.00 51 1009.3
20260505003523 20 0 8.0 16.1 0.00 0.00 0.00 51 1009.4
20260505003024 20 0 6.4 14.5 0.00 0.00 0.00 51 1009.3
20260505002524 20 0 6.4 12.9 0.00 0.00 0.00 51 1009.3
20260505002022 20 0 4.8 12.9 0.00 0.00 0.00 51 1009.1
20260505001522 20 0 6.4 12.9 0.00 0.00 0.00 50 1009.3
20260505001019 20 0 9.7 20.9 0.00 0.00 0.00 50 1009.3
20260505000520 20 0 9.7 20.9 0.00 0.00 0.00 50 1009.1
20260505000019 20 0 8.0 19.3 0.00 0.00 0.00 50 1009.1
20260504235515 20 0 8.0 19.3 0.00 0.00 0.00 50 1009.3
20260504235016 20 0 8.0 14.5 0.00 0.00 0.00 50 1009.3
20260504234515 20 0 8.0 19.3 0.00 0.00 0.00 49 1009.4
20260504234015 20 0 8.0 22.5 0.00 0.00 0.00 50 1009.4
20260504233514 20 0 9.7 22.5 0.00 0.00 0.00 49 1009.6
20260504233012 21 0 9.7 22.5 0.00 0.00 0.00 49 1009.6
20260504232744 21 0 6.4 14.5 0.00 0.00 0.00 49 1009.5
20260504232011 21 0 4.8 9.7 0.00 0.00 0.00 48 1009.4
20260504231513 21 0 6.4 17.7 0.00 0.00 0.00 48 1009.4
20260504231012 21 0 8.0 20.9 0.00 0.00 0.00 49 1009.5
20260504230511 21 0 8.0 20.9 0.00 0.00 0.00 48 1009.7
20260504230013 21 0 9.7 30.6 0.00 0.00 0.00 49 1009.7
20260504225510 21 0 9.7 30.6 0.00 0.00 0.00 47 1009.7
20260504225008 21 0 6.4 19.3 0.00 0.00 0.00 47 1009.7
20260504224507 21 155 6.4 16.1 0.00 0.00 0.00 48 1009.7
20260504224007 21 0 6.4 16.1 0.00 0.00 0.00 48 1009.9
20260504223508 21 0 8.0 19.3 0.00 0.00 0.00 49 1009.9
20260504223007 21 0 9.7 19.3 0.00 0.00 0.00 47 1009.8
20260504222506 21 0 9.7 20.9 0.00 0.00 0.00 48 1009.7
20260504222006 21 0 11.3 20.9 0.00 0.00 0.00 47 1009.6
20260504221507 21 0 12.9 22.5 0.00 0.00 0.00 47 1009.5
20260504221007 21 0 11.3 24.1 0.00 0.00 0.00 47 1009.6
20260504220506 21 0 12.9 25.7 0.00 0.00 0.00 47 1009.5
20260504220004 21 0 12.9 25.7 0.00 0.00 0.00 46 1009.5
20260504215501 21 0 11.3 25.7 0.00 0.00 0.00 47 1009.5
20260504215001 21 0 11.3 24.1 0.00 0.00 0.00 48 1009.4
20260504214500 21 0 14.5 25.7 0.00 0.00 0.00 47 1009.4
20260504214000 21 0 12.9 25.7 0.00 0.00 0.00 46 1009.6
20260504213458 21 0 11.3 22.5 0.00 0.00 0.00 48 1009.5
20260504212958 21 0 11.3 25.7 0.00 0.00 0.00 46 1009.5
20260504212458 21 0 11.3 25.7 0.00 0.00 0.00 47 1009.6
20260504211956 21 0 14.5 30.6 0.00 0.00 0.00 46 1009.5
20260504211459 22 0 12.9 30.6 0.00 0.00 0.00 45 1009.4
20260504210956 22 0 11.3 27.4 0.00 0.00 0.00 46 1009.6
20260504210726 22 0 9.7 19.3 0.00 0.00 0.00 45 1009.5
20260504210226 22 0 9.7 19.3 0.00 0.00 0.00 48 1009.6
20260504205453 22 0 9.7 20.9 0.00 0.00 0.00 46 1009.6
20260504204954 22 0 12.9 32.2 0.00 0.00 0.00 46 1009.7
20260504204450 22 0 16.1 32.2 0.00 0.00 0.00 50 1009.7
20260504203950 22 0 12.9 24.1 0.00 0.00 0.00 46 1009.7
20260504203450 22 0 12.9 24.1 0.00 0.00 0.00 45 1009.8
20260504203223 22 0 12.9 24.1 0.00 0.00 0.00 45 1009.8
20260504202449 22 0 12.9 29.0 0.00 0.00 0.00 47 1009.6
20260504201948 22 0 11.3 29.0 0.00 0.00 0.00 47 1009.8
20260504201449 22 0 11.3 24.1 0.00 0.00 0.00 45 1009.8
20260504200947 22 0 11.3 24.1 0.00 0.00 0.00 44 1009.8
20260504200448 22 0 12.9 32.2 0.00 0.00 0.00 46 1009.9
20260504195945 22 0 14.5 32.2 0.00 0.00 0.00 45 1009.9
20260504195718 22 0 16.1 33.8 0.00 0.00 0.00 46 1009.8
20260504194946 22 0 17.7 41.8 0.00 0.00 0.00 46 1009.8
20260504194444 22 0 19.3 41.8 0.00 0.00 0.00 47 1010.0
20260504193944 22 0 22.5 35.4 0.00 0.00 0.00 48 1009.8
20260504193444 22 0 17.7 35.4 0.00 0.00 0.00 47 1009.9
20260504192944 22 0 12.9 27.4 0.00 0.00 0.00 47 1010.0
20260504192446 22 0 14.5 30.6 0.00 0.00 0.00 46 1010.0
20260504191944 22 0 16.1 32.2 0.00 0.00 0.00 47 1010.1
20260504191444 22 0 12.9 32.2 0.00 0.00 0.00 48 1010.2
20260504190942 22 0 16.1 40.2 0.00 0.00 0.00 49 1010.1
20260504190444 21 0 17.7 37.0 0.00 0.00 0.00 50 1010.1
20260504190439 21 0 20.9 40.2 0.00 0.00 0.00 47 1010.2
20260504185439 21 0 17.7 30.6 0.00 0.00 0.00 47 1010.3
20260504184939 21 0 16.1 32.2 0.00 0.00 0.00 46 1010.4
20260504184438 22 0 12.9 32.2 0.00 0.00 0.00 46 1010.5
20260504184210 22 0 14.5 27.4 0.00 0.00 0.00 44 1010.6
20260504183712 22 0 14.5 27.4 0.00 0.00 0.00 45 1010.6
20260504182938 22 0 12.9 25.7 0.00 0.00 0.00 45 1010.6
20260504182439 22 0 11.3 29.0 0.00 0.00 0.00 47 1010.7
20260504181944 22 0 11.3 25.7 0.00 0.00 0.00 45 1010.8
20260504181939 22 0 11.3 29.0 0.00 0.00 0.00 44 1010.7
20260504180937 22 0 12.9 24.1 0.00 0.00 0.00 47 1010.7
20260504180437 22 0 12.9 25.7 0.00 0.00 0.00 47 1010.8
20260504175937 21 0 14.5 29.0 0.00 0.00 0.00 45 1010.8
20260504175438 21 0 14.5 29.0 0.00 0.00 0.00 49 1011.0
20260504174938 21 0 14.5 27.4 0.00 0.00 0.00 47 1010.9
20260504174435 21 0 16.1 40.2 0.00 0.00 0.00 48 1011.0
20260504173938 21 0 16.1 40.2 0.00 0.00 0.00 46 1011.2
20260504173436 21 0 12.9 30.6 0.00 0.00 0.00 46 1011.2
20260504172938 21 0 11.3 25.7 0.00 0.00 0.00 46 1011.2
20260504172434 21 0 11.3 25.7 0.00 0.00 0.00 45 1011.2
20260504171934 21 0 16.1 32.2 0.00 0.00 0.00 45 1011.4
20260504171703 21 0 16.1 32.2 0.00 0.00 0.00 47 1011.2
20260504170930 21 0 12.9 24.1 0.00 0.00 0.00 46 1011.2
20260504170430 21 0 12.9 25.7 0.00 0.00 0.00 47 1011.3
20260504170201 21 0 16.1 33.8 0.00 0.00 0.00 49 1011.3
20260504160422 20 0 16.1 29.0 0.00 0.00 0.00 48 1012.2
20260504150913 18 0 14.5 37.0 0.00 0.00 0.00 47 1012.8
20260504150414 18 0 11.3 27.4 0.00 0.00 0.00 49 1013.0
20260504140640 17 0 16.1 27.4 0.00 0.00 0.00 47 1012.8
20260504130407 15 0 12.9 27.4 0.00 0.00 0.00 52 1012.9
20260504110352 10 0 8.0 17.7 0.00 0.00 0.00 57 1012.8
20260504100340 10 0 6.4 14.5 0.00 0.00 0.00 53 1012.8
20260504081825 10 0 6.4 14.5 0.00 0.00 0.00 52 1013.7
20260504081326 10 0 4.8 14.5 0.00 0.00 0.00 52 1013.5
20260504080828 10 0 4.8 9.7 0.00 0.00 0.00 52 1013.6
20260504080325 10 0 4.8 9.7 0.00 0.00 0.00 52 1013.5
20260504070310 10 0 4.8 9.7 0.00 0.00 0.00 52 1013.8